This is the latest recevied weather packets stored in our database for station/object KK7ISX. If no packets are shown the sender has not sent any weather packets the latest 10 day(s).
| Time | Temp. | Humidity | Pressure | Rain* | Wind** | Luminosity | Snow |
|---|---|---|---|---|---|---|---|
| 1777941032 | 27.78° C | 25% | 1003.7 hPa | 0 mm | - | 210 W/m² | - |
| 1777940732 | 27.78° C | 25% | 1003.7 hPa | 0 mm | - | 220 W/m² | - |
| 1777940432 | 27.22° C | 24% | 1003.9 hPa | 0 mm | - | 232 W/m² | - |
| 1777940128 | 27.78° C | 25% | 1004 hPa | 0 mm | - | 245 W/m² | - |
| 1777939825 | 27.22° C | 24% | 1003.8 hPa | 0 mm | - | 251 W/m² | - |
| 1777939523 | 27.22° C | 24% | 1004 hPa | 0 mm | - | 271 W/m² | - |
| 1777939220 | 27.22° C | 25% | 1003.9 hPa | 0 mm | - | 283 W/m² | - |
| 1777938917 | 27.22° C | 25% | 1004.1 hPa | 0 mm | - | 295 W/m² | - |
| 1777938613 | 27.22° C | 26% | 1004.2 hPa | 0 mm | - | 308 W/m² | - |
| 1777938310 | 27.22° C | 25% | 1004.2 hPa | 0 mm | - | 322 W/m² | - |
| 1777938007 | 27.22° C | 27% | 1004.2 hPa | 0 mm | - | 337 W/m² | - |
| 1777937702 | 27.22° C | 27% | 1004.1 hPa | 0 mm | - | 351 W/m² | - |
| 1777937400 | 27.22° C | 27% | 1004.2 hPa | 0 mm | - | 367 W/m² | - |
| 1777937097 | 27.22° C | 27% | 1004.2 hPa | 0 mm | - | 381 W/m² | - |
| 1777936794 | 27.22° C | 28% | 1004.2 hPa | 0 mm | - | 396 W/m² | - |
| 1777936490 | 27.22° C | 29% | 1004.4 hPa | 0 mm | - | 411 W/m² | - |
| 1777936187 | 26.67° C | 28% | 1004.4 hPa | 0 mm | - | 425 W/m² | - |
| 1777935883 | 27.22° C | 28% | 1004.5 hPa | 0 mm | - | 443 W/m² | - |
| 1777935583 | 26.67° C | 28% | 1004.5 hPa | 0 mm | - | 456 W/m² | - |
| 1777935279 | 26.67° C | 31% | 1004.5 hPa | 0 mm | - | 467 W/m² | - |
| 1777934976 | 26.67° C | 30% | 1004.6 hPa | 0 mm | - | 476 W/m² | - |
| 1777934672 | 26.67° C | 30% | 1005 hPa | 0 mm | - | 488 W/m² | - |
| 1777934370 | 26.67° C | 30% | 1004.8 hPa | 0 mm | - | 500 W/m² | - |
| 1777934065 | 26.67° C | 29% | 1005 hPa | 0 mm | - | 512 W/m² | - |
| 1777933761 | 26.11° C | 29% | 1005 hPa | 0 mm | - | 521 W/m² | - |
* Rain latest hour (hover to see other rain measurements)
** Current wind speed in m/s (hover to see current wind gust speed)